Oak Harbor, WA

2:33 PM PST on February 23, 2017 (GMT -0800)
Whidbey Island Naval Air Station

Weather History for KNUW - October, 2012

Change the Weather History Date:

Friday, October 26, 2012

  Actual Average Record
Temperature  
Mean Temperature 46 °F -  
Max Temperature 48 °F 52 °F 61 °F (1998)
Min Temperature 44 °F 38 °F 32 °F (2007)
Degree Days  
Heating Degree Days 19    
Moisture  
Dew Point 41 °F    
Average Humidity 83    
Maximum Humidity 90    
Minimum Humidity 71    
Precipitation  
Precipitation 0.21 in - - ()
Sea Level Pressure  
Sea Level Pressure 30.13 in    
Wind  
Wind Speed 8 mph (East)    
Max Wind Speed 14 mph    
Max Gust Speed -    
Visibility 8 miles    
Events Rain    
Averages and records for this station are not official NWS values.
T = Trace of Precipitation, MM = Missing Value Source: NWS Daily Summary

Daily Weather History Graph

Daily Weather History Graph

Search for Another Location

Airport or City:

Trip Planner

Search our weather history database for the weather conditions in past years. The results will help you decide how hot, cold, wet, or windy it might be!

Date:

Astronomy

Oct. 26, 2012 Rise Set
Actual Time 7:47 AM PDT 6:00 PM PDT
Civil Twilight 7:15 AM PDT 6:32 PM PDT
Nautical Twilight 6:39 AM PDT 7:09 PM PDT
Astronomical Twilight 6:02 AM PDT 7:45 PM PDT
Moon 4:27 PM PDT (10/26) 4:38 AM PDT (10/26)
Length of Visible Light 11h 16m
Length of Day
10h 12m
Waxing Gibbous, 91% of the Moon is Illuminated
Oct 26
Waxing Gibbous
Oct 29
Full
Nov 6
Last Quarter
Nov 13
New
Nov 20
First Quarter

Hourly Weather History & Observations

Time (PDT) Temp. Windchill Dew Point Humidity Pressure Visibility Wind Dir Wind Speed Gust Speed Precip Events Conditions
12:56 AM 46.0 °F 40.6 °F 39.9 °F 79% 30.30 in 10.0 mi East 11.5 mph - N/A   Overcast
1:56 AM 46.0 °F 41.0 °F 39.0 °F 76% 30.29 in 10.0 mi East 10.4 mph - N/A   Overcast
2:56 AM 44.1 °F 39.5 °F 39.0 °F 82% 30.28 in 10.0 mi East 8.1 mph - N/A   Mostly Cloudy
3:56 AM 45.0 °F 41.2 °F 39.0 °F 80% 30.26 in 10.0 mi East 6.9 mph - N/A   Overcast
4:56 AM 45.0 °F 41.2 °F 37.9 °F 76% 30.25 in 10.0 mi East 6.9 mph - N/A   Overcast
5:56 AM 44.1 °F 40.1 °F 37.9 °F 79% 30.23 in 10.0 mi East 6.9 mph - N/A   Overcast
6:56 AM 44.1 °F - 39.0 °F 82% 30.20 in 10.0 mi Calm Calm - N/A   Overcast
7:56 AM 45.0 °F - 39.0 °F 80% 30.18 in 10.0 mi Calm Calm - N/A   Overcast
8:24 AM 44.6 °F 43.1 °F 39.2 °F 81% 30.15 in 10.0 mi ENE 3.5 mph - 0.00 in Rain Light Rain
8:56 AM 45.0 °F 42.6 °F 39.0 °F 80% 30.16 in 10.0 mi East 4.6 mph - 0.00 in   Overcast
9:56 AM 46.9 °F - 37.9 °F 71% 30.16 in 10.0 mi East 5.8 mph - 0.00 in Rain Light Rain
10:56 AM 46.0 °F 43.9 °F 39.9 °F 79% 30.18 in 8.0 mi ENE 4.6 mph - 0.01 in Rain Light Rain
11:56 AM 45.0 °F 39.7 °F 41.0 °F 86% 30.17 in 6.0 mi East 10.4 mph - 0.13 in Rain Rain
12:27 PM 46.4 °F 40.7 °F 42.8 °F 87% 30.14 in 6.0 mi East 12.7 mph - 0.05 in Rain Light Rain
12:56 PM 46.0 °F 39.9 °F 42.1 °F 86% 30.14 in 6.0 mi East 13.8 mph - 0.05 in Rain Light Rain
1:56 PM 46.0 °F 40.6 °F 41.0 °F 83% 30.13 in 7.0 mi East 11.5 mph - 0.02 in Rain Light Rain
2:30 PM 46.4 °F 41.1 °F 41.0 °F 81% 30.10 in 9.0 mi East 11.5 mph - 0.00 in   Overcast
2:56 PM 46.0 °F 43.1 °F 42.1 °F 86% 30.12 in 9.0 mi East 5.8 mph - 0.00 in   Overcast
3:32 PM 46.4 °F 41.9 °F 42.8 °F 87% 30.09 in 8.0 mi East 9.2 mph - N/A   Overcast
3:56 PM 46.0 °F 41.0 °F 42.1 °F 86% 30.10 in 8.0 mi ENE 10.4 mph - N/A   Overcast
4:03 PM 46.4 °F 41.9 °F 42.8 °F 87% 30.08 in 8.0 mi ENE 9.2 mph - 0.00 in Rain Light Rain
4:56 PM 46.0 °F 41.0 °F 42.1 °F 86% 30.08 in 9.0 mi East 10.4 mph - 0.00 in   Overcast
5:47 PM 46.4 °F 42.9 °F 42.8 °F 87% 30.07 in 8.0 mi East 6.9 mph - 0.00 in Rain Light Rain
5:56 PM 46.0 °F 41.4 °F 42.1 °F 86% 30.08 in 7.0 mi East 9.2 mph - 0.00 in Rain Light Rain
6:56 PM 46.9 °F - 42.1 °F 83% 30.06 in 8.0 mi East 11.5 mph - 0.00 in   Overcast
7:30 PM 46.4 °F 41.1 °F 42.8 °F 87% 30.05 in 8.0 mi East 11.5 mph - N/A   Overcast
7:56 PM 46.9 °F - 42.1 °F 83% 30.07 in 8.0 mi East 9.2 mph - N/A   Overcast
8:56 PM 46.9 °F - 43.0 °F 86% 30.05 in 7.0 mi East 11.5 mph - N/A   Overcast
9:56 PM 46.9 °F - 44.1 °F 90% 30.04 in 8.0 mi East 11.5 mph - N/A   Overcast
10:40 PM 48.2 °F - 44.6 °F 87% 30.02 in 7.0 mi East 6.9 mph - 0.00 in Rain Light Rain
10:56 PM 48.0 °F - 44.1 °F 86% 30.04 in 7.0 mi East 8.1 mph - 0.00 in   Overcast
11:56 PM 48.9 °F - 45.0 °F 86% 30.03 in 7.0 mi East 4.6 mph - N/A   Overcast